When you browse on this site, cookies collect data to enhance your experience and personalize the content and advertising you see.
Visit our Privacy Policy to learn more. By continuing to use the site, you agree to this use of cookies and data.
  • In Portugal
  • List of Countries
  • For 7 days
  • Water Temperature
  • Satellite Maps
  • Weather Map
  • Weather Widgets
  • user-avatar
    Login

    Hourly Weather Holmech

    Today, 25 June, Tuesday

    Time Temperature Precipitation Wind Pressure Humidity
    00:00 +17°C° 0 mm 3 mps 757 mmHg 87%
    01:00 +16°C° 0 mm 3 mps 757 mmHg 88%
    02:00 +16°C° 0 mm 3 mps 758 mmHg 88%
    03:00 +16°C° 0 mm 3 mps 758 mmHg 87%
    04:00 +16°C° 0 mm 2 mps 758 mmHg 87%
    05:00 +16°C° 0 mm 2 mps 758 mmHg 86%
    06:00 +18°C° 0 mm 2 mps 758 mmHg 80%
    07:00 +20°C° 0 mm 3 mps 759 mmHg 74%
    08:00 +21°C° 0 mm 3 mps 759 mmHg 67%
    09:00 +24°C° 0 mm 3 mps 759 mmHg 61%
    10:00 +25°C° 0 mm 3 mps 759 mmHg 55%
    11:00 +26°C° 0 mm 3 mps 759 mmHg 49%
    12:00 +27°C° 0 mm 3 mps 759 mmHg 48%
    13:00 +27°C° 0 mm 3 mps 759 mmHg 48%
    14:00 +27°C° 0 mm 3 mps 759 mmHg 48%
    15:00 +27°C° 0 mm 3 mps 759 mmHg 51%
    16:00 +26°C° 0 mm 3 mps 759 mmHg 55%
    17:00 +26°C° 0 mm 3 mps 758 mmHg 58%
    18:00 +24°C° 0 mm 3 mps 759 mmHg 65%
    19:00 +23°C° 0 mm 2 mps 759 mmHg 71%
    20:00 +20°C° 0 mm 2 mps 759 mmHg 78%
    21:00 +19°C° 0 mm 2 mps 759 mmHg 79%
    22:00 +18°C° 0 mm 2 mps 759 mmHg 81%
    23:00 +18°C° 0 mm 1 mps 759 mmHg 83%

    Tomorrow, 26 June, Wednesday

    Time Temperature Precipitation Wind Pressure Humidity
    00:00 +18°C° 0 mm 1 mps 759 mmHg 83%
    01:00 +16°C° 0 mm 1 mps 759 mmHg 84%
    02:00 +16°C° 0 mm 1 mps 759 mmHg 84%
    03:00 +15°C° 0 mm 0 mps 759 mmHg 84%
    04:00 +15°C° 0 mm 0 mps 759 mmHg 84%
    05:00 +15°C° 0 mm 0 mps 759 mmHg 84%
    06:00 +17°C° 0 mm 0 mps 759 mmHg 78%
    07:00 +19°C° 0 mm 0 mps 759 mmHg 73%
    08:00 +21°C° 0 mm 0 mps 759 mmHg 68%
    09:00 +24°C° 0 mm 1 mps 758 mmHg 63%
    10:00 +25°C° 0 mm 1 mps 758 mmHg 58%
    11:00 +26°C° 0 mm 1 mps 758 mmHg 53%
    12:00 +27°C° 0 mm 2 mps 757 mmHg 52%
    13:00 +27°C° 0 mm 2 mps 757 mmHg 51%
    14:00 +28°C° 0 mm 2 mps 756 mmHg 50%
    15:00 +28°C° 0 mm 2 mps 756 mmHg 51%
    16:00 +28°C° 0 mm 2 mps 755 mmHg 52%
    17:00 +28°C° 0 mm 2 mps 754 mmHg 54%
    18:00 +26°C° 0 mm 2 mps 754 mmHg 60%
    19:00 +24°C° 0 mm 2 mps 754 mmHg 67%
    20:00 +21°C° 0 mm 2 mps 753 mmHg 73%
    21:00 +21°C° 0 mm 2 mps 753 mmHg 76%
    22:00 +20°C° 0 mm 3 mps 752 mmHg 79%
    23:00 +19°C° 0 mm 3 mps 752 mmHg 82%

    Day after tomorrow, 27 June, Thursday

    Time Temperature Precipitation Wind Pressure Humidity
    00:00 +19°C° 0 mm 3 mps 751 mmHg 83%
    01:00 +19°C° 0 mm 3 mps 751 mmHg 85%
    02:00 +19°C° 0 mm 4 mps 750 mmHg 86%
    03:00 +19°C° 0 mm 4 mps 749 mmHg 85%
    04:00 +19°C° 0 mm 4 mps 749 mmHg 84%
    05:00 +19°C° 0 mm 5 mps 748 mmHg 84%
    06:00 +20°C° 0 mm 5 mps 747 mmHg 80%
    07:00 +21°C° 0 mm 6 mps 746 mmHg 76%
    08:00 +22°C° 0 mm 7 mps 745 mmHg 73%
    09:00 +23°C° 0.8 mm 7 mps 745 mmHg 76%
    10:00 +23°C° 0.8 mm 6 mps 744 mmHg 80%
    11:00 +23°C° 0.8 mm 6 mps 743 mmHg 83%
    12:00 +24°C° 0.9 mm 6 mps 743 mmHg 82%
    13:00 +26°C° 0.9 mm 7 mps 742 mmHg 80%
    14:00 +26°C° 0.9 mm 7 mps 741 mmHg 78%
    15:00 +26°C° 0.2 mm 7 mps 741 mmHg 77%
    16:00 +24°C° 0.2 mm 7 mps 741 mmHg 75%
    17:00 +23°C° 0.2 mm 8 mps 741 mmHg 74%
    18:00 +22°C° 0.3 mm 7 mps 741 mmHg 78%
    19:00 +20°C° 0.3 mm 6 mps 741 mmHg 82%
    20:00 +17°C° 0.3 mm 5 mps 741 mmHg 86%
    21:00 +16°C° 0 mm 5 mps 742 mmHg 86%
    22:00 +15°C° 0 mm 5 mps 742 mmHg 87%
    23:00 +14°C° 0 mm 5 mps 742 mmHg 87%

    28 June, Friday

    Time Temperature Precipitation Wind Pressure Humidity
    00:00 +14°C° 0 mm 5 mps 742 mmHg 87%
    01:00 +13°C° 0 mm 5 mps 742 mmHg 86%
    02:00 +13°C° 0 mm 4 mps 742 mmHg 86%
    03:00 +13°C° 0 mm 5 mps 742 mmHg 86%
    04:00 +12°C° 0 mm 5 mps 742 mmHg 86%
    05:00 +12°C° 0 mm 5 mps 742 mmHg 86%
    06:00 +13°C° 0 mm 6 mps 742 mmHg 83%
    07:00 +13°C° 0 mm 6 mps 742 mmHg 79%
    08:00 +12°C° 0 mm 7 mps 742 mmHg 75%
    09:00 +14°C° 0 mm 7 mps 742 mmHg 74%
    10:00 +14°C° 0 mm 7 mps 742 mmHg 73%
    11:00 +15°C° 0 mm 7 mps 743 mmHg 71%
    12:00 +16°C° 0 mm 7 mps 743 mmHg 68%
    13:00 +17°C° 0 mm 7 mps 743 mmHg 65%
    14:00 +18°C° 0 mm 7 mps 743 mmHg 62%
    15:00 +17°C° 0.5 mm 7 mps 743 mmHg 67%
    16:00 +17°C° 0.5 mm 6 mps 743 mmHg 71%
    17:00 +17°C° 0.5 mm 6 mps 743 mmHg 75%
    18:00 +16°C° 0.6 mm 5 mps 743 mmHg 79%
    19:00 +15°C° 0.6 mm 5 mps 743 mmHg 83%
    20:00 +14°C° 0.6 mm 5 mps 743 mmHg 87%
    21:00 +13°C° 0.1 mm 5 mps 743 mmHg 88%
    22:00 +12°C° 0.1 mm 4 mps 744 mmHg 89%
    23:00 +11°C° 0.1 mm 4 mps 744 mmHg 90%

    29 June, Saturday

    Time Temperature Precipitation Wind Pressure Humidity
    00:00 +11°C° 0 mm 4 mps 744 mmHg 89%
    01:00 +11°C° 0 mm 4 mps 744 mmHg 88%
    02:00 +11°C° 0 mm 4 mps 744 mmHg 87%
    03:00 +10°C° 0 mm 4 mps 744 mmHg 87%
    04:00 +10°C° 0 mm 4 mps 744 mmHg 87%
    05:00 +10°C° 0 mm 4 mps 744 mmHg 88%
    06:00 +10°C° 0.1 mm 5 mps 744 mmHg 81%
    07:00 +13°C° 0.1 mm 5 mps 745 mmHg 74%
    08:00 +14°C° 0.1 mm 6 mps 745 mmHg 67%
    09:00 +15°C° 0.2 mm 6 mps 745 mmHg 62%
    10:00 +16°C° 0.2 mm 6 mps 745 mmHg 56%
    11:00 +16°C° 0.2 mm 7 mps 745 mmHg 51%
    12:00 +16°C° 0.3 mm 6 mps 745 mmHg 51%
    13:00 +17°C° 0.3 mm 6 mps 745 mmHg 52%
    14:00 +17°C° 0.3 mm 6 mps 745 mmHg 52%
    15:00 +16°C° 0.3 mm 6 mps 745 mmHg 55%
    16:00 +16°C° 0.3 mm 5 mps 745 mmHg 57%
    17:00 +16°C° 0.3 mm 5 mps 745 mmHg 60%
    18:00 +14°C° 0.1 mm 4 mps 746 mmHg 63%
    19:00 +13°C° 0.1 mm 3 mps 746 mmHg 67%
    20:00 +13°C° 0.1 mm 2 mps 746 mmHg 71%
    21:00 +12°C° 0 mm 2 mps 747 mmHg 73%
    22:00 +11°C° 0 mm 3 mps 747 mmHg 74%
    23:00 +10°C° 0 mm 3 mps 747 mmHg 76%

    30 June, Sunday

    Time Temperature Precipitation Wind Pressure Humidity
    00:00 +10°C° 0 mm 3 mps 747 mmHg 79%
    01:00 +9°C° 0 mm 3 mps 747 mmHg 82%
    02:00 +9°C° 0 mm 3 mps 748 mmHg 85%
    03:00 +9°C° 0 mm 3 mps 748 mmHg 83%
    04:00 +9°C° 0 mm 3 mps 748 mmHg 81%
    05:00 +9°C° 0 mm 3 mps 748 mmHg 80%
    06:00 +11°C° 0 mm 4 mps 748 mmHg 72%
    07:00 +13°C° 0 mm 4 mps 748 mmHg 64%
    08:00 +15°C° 0 mm 5 mps 749 mmHg 55%
    09:00 +16°C° 0 mm 5 mps 749 mmHg 52%
    10:00 +17°C° 0 mm 5 mps 749 mmHg 48%
    11:00 +19°C° 0 mm 6 mps 749 mmHg 44%
    12:00 +20°C° 0 mm 6 mps 749 mmHg 45%
    13:00 +20°C° 0 mm 6 mps 749 mmHg 46%
    14:00 +20°C° 0 mm 6 mps 749 mmHg 48%
    15:00 +20°C° 0 mm 5 mps 749 mmHg 49%
    16:00 +21°C° 0 mm 5 mps 749 mmHg 50%
    17:00 +21°C° 0 mm 4 mps 749 mmHg 52%
    18:00 +19°C° 0 mm 3 mps 749 mmHg 58%
    19:00 +17°C° 0 mm 2 mps 749 mmHg 65%
    20:00 +16°C° 0 mm 2 mps 749 mmHg 71%
    21:00 +15°C° 0 mm 2 mps 749 mmHg 76%
    22:00 +14°C° 0 mm 2 mps 749 mmHg 80%
    23:00 +13°C° 0 mm 1 mps 749 mmHg 85%
    Show more